Regional Weather Roundup
Issued by NWS

Home | Current Version | Previous Version | Graphics & Text | Print | Product List | Glossary On
Versions: 1 2 3 4 5 6 7 8 9 10 11 12 13 14 15 16 17 18 19 20 21 22 23 24 25 26 27 28 29 30 31 32 33 34 35 36 37 38 39 40 41 42 43 44 45 46 47 48 49 50
398
ASUS43 KMKX 041011
RWRWI

WISCONSIN REGIONAL WEATHER ROUNDUP
NATIONAL WEATHER SERVICE MILWAUKEE/SULLIVAN WI
500 AM CDT WED MAY 04 2016

NOTE: "FAIR" INDICATES FEW OR NO CLOUDS BELOW 12,000 FEET WITH NO
SIGNIFICANT WEATHER AND/OR OBSTRUCTIONS TO VISIBILITY.

WIZ001-002-006>008-014>016-023>028-041100-
NORTHWEST WISCONSIN

CITY           SKY/WX    TMP DP  RH WIND       PRES   REMARKS
SUPERIOR ARPT  CLEAR     42  32  69 N7        29.92R
ASHLAND        CLEAR     40  33  76 N9        29.89R WCI  34
HAYWARD        CLEAR     31  28  89 CALM      29.89R
SIREN          CLEAR     33  29  85 CALM      29.92S
CUMBERLAND     CLEAR     37  32  81 NW7       29.89S WCI  32
RICE LAKE      CLEAR     40  32  74 W5        29.90S
CHETEK         CLEAR     42  34  74 NW5       29.88S
LADYSMITH      CLEAR     40  34  81 NW9       29.87S WCI  33
EAU CLAIRE     CLEAR     40  34  79 NW6       29.86S
MENOMONIE      CLEAR     42  32  68 W6        29.89R
NEW RICHMOND   CLEAR     41  32  71 N7        29.92R
OSCEOLA        CLEAR     41  33  72 NW3       29.95S
$$

WIZ003>005-009-010-017-018-041100-
NORTH CENTRAL WISCONSIN

CITY           SKY/WX    TMP DP  RH WIND       PRES   REMARKS
MANITOWISH WTR PTCLDY    40  35  81 N6        29.81S
ARBOR VITAE    CLOUDY    42  36  81 N10       29.81R
WOODRUFF       CLOUDY    42  36  81 N10       29.81R
RHINELANDER    CLOUDY    41  34  76 N8        29.80R
EAGLE RIVER    CLOUDY    38  33  80 N12       29.80R WCI  31
LAND O LAKES   CLOUDY    38  34  87 N12G18    29.81S WCI  30
PHILLIPS       MOCLDY    39  34  80 NW6       29.82S
TOMAHAWK       CLOUDY    37  35  91 NW6       29.81R WCI  32
MEDFORD        CLEAR     37  36  96 NW8       29.81S WCI  30
MERRILL        CLEAR     37  36  99 CALM      29.80S
$$

WIZ029-030-035-036-043>047-041100-
CENTRAL WISCONSIN

CITY           SKY/WX    TMP DP  RH WIND       PRES   REMARKS
WAUSAU         PTCLDY    41  36  82 NW7       29.78R
MOSINEE        MOCLDY    37  37 100 NW8       29.80S WCI  31
MARSHFIELD     PTCLDY    39  35  86 NW9       29.80S WCI  33
STEVENS POINT  PTCLDY    37  35  90 NW6       29.80R WCI  33
WAUPACA        CLEAR     42  37  81 NW8       29.77R
WAUTOMA        CLOUDY    43  39  86 N9        29.78R
WISC RAPIDS    CLEAR     42  35  76 N9        29.81R
CAMP DOUGLAS   CLOUDY    43  43 100 NW9       29.80R
$$

WIZ011>013-019>022-031-037>040-048>050-041100-
NORTHEAST WISCONSIN

CITY           SKY/WX    TMP DP  RH WIND       PRES   REMARKS
ANTIGO         CLOUDY    38  35  89 N9        29.76S WCI  32
SHAWANO        PTCLDY    41  35  80 CALM      29.76R
OCONTO         CLOUDY    41  38  91 N9        29.74R
STURGEON BAY   PTCLDY    39  34  81 N15       29.73S WCI  31
GREEN BAY      LGT RAIN  42  36  79 N13       29.74R
MANITOWOC      PTCLDY    42  38  85 N16G23    29.71R
APPLETON       CLEAR     39  34  81 N12       29.73R WCI  32
CLINTONVILLE   CLEAR     41  36  81 N5        29.76S
OSHKOSH        CLEAR     43  37  79 N16       29.73R
$$

WIZ032>034-041-042-053>061-041100-
SOUTHWEST WISCONSIN

CITY           SKY/WX    TMP DP  RH WIND       PRES   REMARKS
LA CROSSE      PTCLDY    47  38  71 N12       29.84R
SPARTA         PTCLDY    43  40  88 N5        29.84R
VIROQUA        CLOUDY    44  41  89 N15       29.81R
BOSCOBEL       MOCLDY    47  45  93 N9        29.80R
PRAIRIE DU CHI PTCLDY    48  42  80 N14G20    29.80R
PLATTEVILLE    CLEAR     44  44  99 N10       29.75R
$$

WIZ056-057-062-063-064-067-068-041100-
SOUTH CENTRAL WISCONSIN

CITY           SKY/WX    TMP DP  RH WIND       PRES   REMARKS
REEDSBURG      CLOUDY    44  41  88 N10G18    29.77S
BARABOO/DELLS  CLOUDY    44  41  88 N7        29.77S
LONE ROCK      PTCLDY    47  42  83 N13       29.79R
MINERAL POINT  CLEAR     45  45 100 N13       29.76R
MADISON        MOCLDY    45  43  93 N14       29.74R
MIDDLETON      MOCLDY    46  43  89 N15G21    29.76R
WATERTOWN      CLOUDY    44  44 100 N8        29.71R
MONROE         CLEAR     45  43  93 N12G17    29.72R
JANESVILLE     CLEAR     45  45 100 N8        29.71R
$$

WIZ051-052-058>065-066-070>072-041100-
SOUTHEAST WISCONSIN

CITY           SKY/WX    TMP DP  RH WIND       PRES   REMARKS
MILWAUKEE      CLOUDY    44  39  82 N13       29.69R
WAUKESHA       PTCLDY    43  41  93 N8        29.71R
MILWAUKEE/TIMM CLOUDY    45  37  76 N12G20    29.69R
RACINE         CLOUDY    44  39  82 N15G22    29.69R
BURLINGTON     MOCLDY    46  44  95 N9        29.69R
KENOSHA        MOCLDY    45  39  79 N14G23    29.68R
FOND DU LAC    CLOUDY    45  40  82 N13       29.73R
SHEBOYGAN      CLOUDY    45  39  79 N13       29.70R
WEST BEND      MOCLDY    43  41  93 NW7       29.70R
JUNEAU         MOCLDY    44  41  90 N14       29.73R
$$

LSZ147-162-041100-
LAKE SUPERIOR

STATION/POSITION TIME  TEMP    WIND        PRES    WAVE
                       AIR SEA DIR/SP/G            HT/PER
                 (UTC) (F)     (DEG/KT/KT) (MB)    (FT/S)
W MID LAKE BUOY  0950   38 37  320/  6/  6 1011.9R   1/ 4
DEVILS ISLAND    0900   44      10/ 13/ 15 1012.3R
SAXON HARBOR     0900   38      CALM  /  3 1011.2
$$

LMZ867-665-643>646-041100-
LAKE MICHIGAN

STATION/POSITION TIME  TEMP    WIND        PRES    WAVE
                       AIR SEA DIR/SP/G            HT/PER
                 (UTC) (F)     (DEG/KT/KT) (MB)    (FT/S)
CHAMBERS ISLAND  0900   42     320/ 14/ 17 1006.4R
N MID LAKE BUOY  0950   40 38  320/ 19/ 23 1004.4R   4/ 4
NORTHPORT PIER   1000   41     340/ 23     1006.1R
ALGOMA LAKESHORE 0915          330/ 14/ 18   N/A
KEWAUNEE LAKESHO 0900   42     340/ 14/ 18 1005.0R
SHEBOYGAN LAKESH 1000   45     350/ 22/ 25 1006.1R
PORT WASHINGTON  0900   48     360/  4/ 14 1005.8R
S MID LAKE BUOY  0950   42 41  360/ 17/ 21 1003.0R   2/ 3
KENOSHA   LAKESH 1000   45      10/ 25/ 30 1004.4R
$$

TC  - TEMPERATURE IN CELSIUS
VSB - VISIBILITY IN STATUTE MILES
WCI - WIND CHILL INDEX
HX  - HEAT INDEX





USA.gov is the U.S. government's official web portal to all federal, state and local government web resources and services.